Date String (YYYY-MM-DD hh:mm:ss) UTC,Instrument flags,absolute air pressure of the measurement (hPa),sample flow rate (lpm),inlet stack bypass flow (lpm),air temperature of the measurement (°C),ambient temperature measured by the external sensor (°C),aerosol sample conditioner tube jacket temperature (°C),OPC LED temperature (°C),internal box temperature (°C),relative humidity of the measurement (%),span deviation,mass concentration of particles derived from Lorenz-Mie calculation of OPC scattering (μg/m³),mass concentration of particles derived from Lorenz-Mie calculation of OPC scattering (μg/m³),mass concentration of particles derived from Lorenz-Mie calculation of OPC scattering (μg/m³)
DateTimeUTC,F1_M11,P_M11,Q1_M11,Q2_M11,T1_M11,T2_M11,T3_M11,T4_M11,T5_M11,U1_M11,ZSPAN_M11,X2_M11,X0_M11,X1_M11
2023-06-17 08:00:00,SystemResetWarning,0832.8,5.00,000.00,030.5,028.8,000.0,039.2,032.0,24.0,0003.6,0004.54,0007.26,0004.31
2023-06-17 08:01:00,SystemResetWarning,0832.8,5.00,000.00,030.5,028.8,000.0,039.2,032.0,24.1,0003.6,0004.53,0007.29,0004.31
2023-06-17 08:02:00,SystemResetWarning,0832.7,5.00,000.00,030.5,028.8,000.0,039.2,031.9,24.1,0003.4,0004.53,0007.34,0004.30
2023-06-17 08:03:00,SystemResetWarning,0832.8,5.00,000.00,030.5,028.8,000.0,039.2,032.0,24.1,0003.0,0004.53,0007.38,0004.30
2023-06-17 08:04:00,SystemResetWarning,0832.8,5.00,000.00,030.5,028.8,000.0,039.1,032.0,24.1,0002.8,0004.54,0007.41,0004.31
2023-06-17 08:05:00,SystemResetWarning,0832.7,5.00,000.00,030.5,028.8,000.0,039.2,032.0,24.1,0003.0,0004.53,0007.47,0004.31
2023-06-17 08:06:00,SystemResetWarning,0832.6,5.00,000.00,030.5,028.8,000.0,039.2,031.9,24.1,0003.1,0004.51,0006.97,0004.30
2023-06-17 08:07:00,SystemResetWarning,0832.6,5.00,000.00,030.5,028.7,000.0,039.1,031.9,24.1,0003.4,0004.50,0007.17,0004.28
2023-06-17 08:08:00,SystemResetWarning,0832.6,5.00,000.00,030.5,028.8,000.0,039.1,031.9,24.3,0003.8,0004.48,0007.73,0004.25
2023-06-17 08:09:00,SystemResetWarning,0832.7,5.00,000.00,030.5,028.8,000.0,039.1,031.9,24.3,0003.9,0004.49,0007.82,0004.24
2023-06-17 08:10:00,SystemResetWarning,0832.6,5.00,000.00,030.5,028.8,000.0,039.1,031.9,24.3,0003.3,0004.48,0007.83,0004.23
2023-06-17 08:11:00,SystemResetWarning,0832.6,5.00,000.00,030.5,028.7,000.0,039.1,031.9,24.3,0000.6,0004.47,0007.84,0004.22
2023-06-17 08:12:00,SystemResetWarning,0832.6,5.00,000.00,030.5,028.8,000.0,039.1,032.0,24.4,0000.0,0004.45,0007.79,0004.20
2023-06-17 08:13:00,SystemResetWarning,0832.5,5.00,000.00,030.5,028.8,000.0,039.1,032.0,24.4,0000.0,0004.44,0007.72,0004.18
2023-06-17 08:14:00,SystemResetWarning,0832.6,4.99,000.00,030.5,028.7,000.0,039.1,031.9,24.4,0000.0,0004.41,0007.73,0004.16
2023-06-17 08:15:00,SystemResetWarning,0832.5,5.00,000.00,030.5,028.8,000.0,039.1,031.9,24.4,0000.0,0004.37,0007.66,0004.14
2023-06-17 08:16:00,SystemResetWarning,0832.5,5.00,000.00,030.5,028.8,000.0,039.1,032.0,24.4,0000.0,0004.40,0007.67,0004.14
2023-06-17 08:17:00,SystemResetWarning,0832.5,5.00,000.00,030.5,028.7,000.0,039.1,031.9,24.4,0000.0,0004.38,0007.66,0004.12
2023-06-17 08:18:00,SystemResetWarning,0832.5,5.00,000.00,030.5,028.7,000.0,039.1,031.9,24.4,0000.0,0004.35,0007.43,0004.11
2023-06-17 08:19:00,SystemResetWarning,0832.5,4.99,000.00,030.5,028.7,000.0,039.1,031.9,24.4,0000.0,0004.36,0006.65,0004.11
2023-06-17 08:20:00,SystemResetWarning,0832.5,5.00,000.00,030.5,028.7,000.0,039.1,031.9,24.4,0000.0,0004.38,0006.99,0004.12
2023-06-17 08:21:00,SystemResetWarning,0832.5,5.00,000.00,030.5,028.7,000.0,039.1,031.9,24.3,0000.0,0004.37,0007.12,0004.11
2023-06-17 08:22:00,SystemResetWarning,0832.5,5.00,000.00,030.5,028.7,000.0,039.1,031.9,24.2,0000.0,0004.39,0007.24,0004.11
2023-06-17 08:23:00,SystemResetWarning,0832.5,5.00,000.00,030.5,028.7,000.0,039.1,031.8,24.2,0000.0,0004.39,0007.21,0004.10
2023-06-17 08:24:00,SystemResetWarning,0832.5,5.00,000.00,030.5,028.7,000.0,039.1,031.8,24.1,0000.0,0004.39,0007.20,0004.10
2023-06-17 08:25:00,SystemResetWarning,0832.5,5.00,000.00,030.5,028.7,000.0,039.1,031.9,24.1,0000.0,0004.40,0007.14,0004.10
2023-06-17 08:26:00,SystemResetWarning,0832.5,5.00,000.00,030.5,028.7,000.0,039.1,031.9,24.0,0000.0,0004.39,0007.14,0004.09
2023-06-17 08:27:00,SystemResetWarning,0832.5,5.00,000.00,030.5,028.7,000.0,039.1,031.9,24.0,0001.9,0004.36,0007.02,0004.07
2023-06-17 08:28:00,SystemResetWarning,0832.5,5.00,000.00,030.5,028.7,000.0,039.1,031.9,23.9,0001.8,0004.38,0007.10,0004.07
2023-06-17 08:29:00,SystemResetWarning,0832.5,5.00,000.00,030.5,028.7,000.0,039.1,031.9,23.9,0001.7,0004.42,0007.28,0004.08
2023-06-17 08:30:00,SystemResetWarning,0832.5,5.00,000.00,030.5,028.7,000.0,039.1,031.9,23.8,0000.6,0004.43,0007.31,0004.09
2023-06-17 08:31:00,SystemResetWarning,0832.5,5.01,000.00,030.5,028.7,000.0,039.1,031.9,23.8,0000.0,0004.42,0006.98,0004.09
2023-06-17 08:32:00,SystemResetWarning,0832.5,5.01,000.00,030.5,028.7,000.0,039.1,031.9,23.8,0000.0,0004.43,0006.77,0004.10
2023-06-17 08:33:00,SystemResetWarning,0832.5,5.00,000.00,030.5,028.6,000.0,039.1,031.9,23.7,0000.0,0004.42,0006.64,0004.10
2023-06-17 08:34:00,SystemResetWarning,0832.5,5.00,000.00,030.4,028.6,000.0,039.1,031.9,23.6,0000.0,0004.46,0006.78,0004.14
2023-06-17 08:35:00,SystemResetWarning,0832.5,4.99,000.00,030.5,028.6,000.0,039.1,031.8,23.5,0000.0,0004.48,0006.81,0004.16
2023-06-17 08:36:00,SystemResetWarning,0832.5,5.00,000.00,030.4,028.6,000.0,039.1,031.9,23.5,0000.0,0004.48,0006.79,0004.17
2023-06-17 08:37:00,SystemResetWarning,0832.5,5.00,000.00,030.4,028.6,000.0,039.1,031.9,23.5,0000.0,0004.49,0006.76,0004.19
2023-06-17 08:38:00,SystemResetWarning,0832.5,5.00,000.00,030.4,028.6,000.0,039.1,031.9,23.4,0000.0,0004.50,0006.76,0004.21
2023-06-17 08:39:00,SystemResetWarning,0832.5,5.00,000.00,030.4,028.6,000.0,039.1,031.9,23.4,0000.0,0004.49,0006.74,0004.23
2023-06-17 08:40:00,SystemResetWarning,0832.4,5.01,000.00,030.4,028.7,000.0,039.1,031.9,23.4,0000.0,0004.51,0006.91,0004.24
2023-06-17 08:41:00,SystemResetWarning,0832.4,5.01,000.00,030.4,028.7,000.0,039.1,031.9,23.3,0000.0,0004.54,0007.02,0004.25
2023-06-17 08:42:00,SystemResetWarning,0832.3,5.00,000.00,030.4,028.7,000.0,039.1,031.9,23.4,0000.0,0004.53,0006.95,0004.25
2023-06-17 08:43:00,SystemResetWarning,0832.3,4.99,000.00,030.4,028.7,000.0,039.1,031.9,23.6,0000.0,0004.53,0007.05,0004.25
2023-06-17 08:44:00,SystemResetWarning,0832.3,4.99,000.00,030.4,028.7,000.0,039.1,031.9,23.5,0001.6,0004.54,0007.07,0004.26
2023-06-17 08:45:00,SystemResetWarning,0832.3,5.02,000.00,030.4,028.7,000.0,039.1,031.9,23.6,0003.1,0004.51,0006.99,0004.23
2023-06-17 08:46:00,SystemResetWarning,0832.2,5.00,000.00,030.4,028.7,000.0,039.1,031.9,23.6,0003.2,0004.49,0007.45,0004.23
2023-06-17 08:47:00,SystemResetWarning,0832.2,5.00,000.00,030.4,028.7,000.0,039.1,031.9,23.5,0003.2,0004.47,0007.45,0004.21
2023-06-17 08:48:00,SystemResetWarning,0832.1,4.99,000.00,030.4,028.7,000.0,039.1,031.8,23.5,0001.3,0004.46,0007.43,0004.20
2023-06-17 08:49:00,SystemResetWarning,0832.2,5.00,000.00,030.4,028.7,000.0,039.0,031.9,23.5,0000.0,0004.46,0007.40,0004.20
2023-06-17 08:50:00,SystemResetWarning,0832.2,5.00,000.00,030.4,028.7,000.0,039.0,031.9,23.6,0001.4,0004.45,0007.38,0004.20
2023-06-17 08:51:00,SystemResetWarning,0832.1,5.00,000.00,030.4,028.7,000.0,039.0,031.9,23.7,0000.0,0004.43,0007.29,0004.19
2023-06-17 08:52:00,SystemResetWarning,0832.2,5.00,000.00,030.4,028.7,000.0,039.0,031.9,23.9,0001.2,0004.39,0007.06,0004.17
2023-06-17 08:53:00,SystemResetWarning,0832.2,5.00,000.00,030.4,028.6,000.0,039.0,031.9,24.0,0000.1,0004.37,0007.16,0004.15
2023-06-17 08:54:00,SystemResetWarning,0832.2,5.00,000.00,030.4,028.6,000.0,039.0,031.9,24.1,0000.0,0004.35,0007.05,0004.14
2023-06-17 08:55:00,SystemResetWarning,0832.2,5.00,000.00,030.4,028.6,000.0,039.0,031.9,24.2,0000.0,0004.33,0007.05,0004.11
2023-06-17 08:56:00,SystemResetWarning,0832.2,5.00,000.00,030.4,028.6,000.0,039.0,031.9,24.1,0000.0,0004.31,0007.02,0004.11
2023-06-17 08:57:00,SystemResetWarning,0832.2,5.00,000.00,030.4,028.6,000.0,039.1,031.9,24.0,0000.0,0004.30,0006.68,0004.09
2023-06-17 08:58:00,SystemResetWarning,0832.2,4.99,000.00,030.4,028.6,000.0,039.1,031.9,23.8,0000.0,0004.31,0006.72,0004.08
2023-06-17 08:59:00,SystemResetWarning,0832.2,4.99,000.00,030.4,028.6,000.0,039.0,031.9,23.6,0000.0,0004.33,0007.03,0004.09
